This is the latest recevied weather packets stored in our database for station/object N9WHM. If no packets are shown the sender has not sent any weather packets the latest 10 day(s).
| Time | Temp. | Humidity | Pressure | Rain* | Wind** | Luminosity | Snow |
|---|---|---|---|---|---|---|---|
| 1778216904 | 8.89° C | 49% | 1009.7 hPa | 0 mm | - | 0 W/m² | - |
| 1778216601 | 8.89° C | 50% | 1009.8 hPa | 0 mm | - | 0 W/m² | - |
| 1778216297 | 8.89° C | 50% | 1009.6 hPa | 0 mm | - | 0 W/m² | - |
| 1778215995 | 9.44° C | 49% | 1009.8 hPa | 0 mm | - | 0 W/m² | - |
| 1778215692 | 9.44° C | 49% | 1009.8 hPa | 0 mm | - | 0 W/m² | - |
| 1778215389 | 10° C | 48% | 1009.6 hPa | 0 mm | - | 0 W/m² | - |
| 1778215085 | 10° C | 47% | 1009.7 hPa | 0 mm | - | 0 W/m² | - |
| 1778214783 | 10° C | 47% | 1010 hPa | 0 mm | - | 0 W/m² | - |
| 1778214479 | 10.56° C | 45% | 1009.8 hPa | 0 mm | - | 0 W/m² | - |
| 1778214176 | 10.56° C | 46% | 1009.8 hPa | 0 mm | - | 0 W/m² | - |
| 1778213873 | 10.56° C | 45% | 1010 hPa | 0 mm | - | 0 W/m² | - |
| 1778213569 | 10.56° C | 45% | 1009.9 hPa | 0 mm | - | 0 W/m² | - |
| 1778213266 | 11.11° C | 43% | 1009.8 hPa | 0 mm | - | 0 W/m² | - |
| 1778212963 | 11.67° C | 42% | 1009.9 hPa | 0 mm | - | 0 W/m² | - |
| 1778212660 | 12.22° C | 40% | 1009.8 hPa | 0 mm | - | 0 W/m² | - |
| 1778212358 | 11.11° C | 40% | 1010 hPa | 0 mm | - | 0 W/m² | - |
| 1778212054 | 12.22° C | 41% | 1009.9 hPa | 0 mm | - | 0 W/m² | - |
| 1778211752 | 12.78° C | 39% | 1009.9 hPa | 0 mm | - | 0 W/m² | - |
| 1778211449 | 12.78° C | 38% | 1009.8 hPa | 0 mm | - | 0 W/m² | - |
| 1778211147 | 13.33° C | 37% | 1009.8 hPa | 0 mm | - | 0 W/m² | - |
| 1778210844 | 13.33° C | 35% | 1010 hPa | 0 mm | - | 0 W/m² | - |
| 1778210541 | 13.33° C | 38% | 1009.8 hPa | 0 mm | - | 0 W/m² | - |
| 1778210238 | 13.89° C | 36% | 1009.9 hPa | 0 mm | - | 0 W/m² | - |
| 1778209934 | 13.89° C | 35% | 1009.7 hPa | 0 mm | - | 0 W/m² | - |
| 1778209631 | 13.33° C | 35% | 1009.8 hPa | 0 mm | - | 0 W/m² | - |
* Rain latest hour (hover to see other rain measurements)
** Current wind speed in m/s (hover to see current wind gust speed)